Flag for U.S.A. Weather past 2 weeks in Sunrise, Florida, U.S.A.

Now
73 °F

Passing clouds.


Feels Like: 77 °F
Forecast: 57 / 78 °F
Wind: 6 mph from Northeast

Location: Fort Lauderdale Executive Airport

Current Time: Mar 30, 2015 at 7:52:01 PM

Latest Report: Mar 30, 2015 at 6:53 PM


Visibility: 10 mi

Pressure: 30.18 "Hg

Humidity: 48%

Dew point: 52 °F

Location of SunriseLocation

Historic Weather in Sunrise — Graph

°F

Sunrise temperature yesterday

Maximum temperature yesterday: 76 °F (at 12:53 PM)
Minimum temperature yesterday: 56 °F (at 7:53 AM)
Average temperature yesterday: 66 °F

Past Weeks' High & Low Weather Summary

 TemperatureHumidityPressure
High91 °F (Mar 27, 1:53 PM)100% (Mar 16, 6:53 AM)30.32 "Hg (Mar 16, 6:53 AM)
Low56 °F (Mar 29, 7:53 AM)29% (Mar 29, 5:53 PM)29.80 "Hg (Mar 27, 4:53 PM)
Average75 °F69%30.06 "Hg
* Reported Mar 15 6:53 PM — Mar 30 6:53 PM, Sunrise, Weather by CustomWeather, © 2015

Note: Actual official high and low records may vary slightly from our data, if they occured in-between our weather recording intervals... More about our weather records

Advertising

Sunrise weather history for previous 24 hours

 ConditionsComfort  
Time TempWeatherWind HumidityBarometerVisibility
6:53 PM
Mon, Mar 30
73 °FPassing clouds.6 mph48%30.18 "Hg10 mi
5:53 PM75 °FPassing clouds.12 mph45%30.18 "Hg10 mi
4:53 PM77 °FScattered clouds.9 mph42%30.19 "Hg10 mi
3:53 PM77 °FPassing clouds.7 mph39%30.20 "Hg10 mi
2:53 PM77 °FScattered clouds.N/A39%30.22 "Hg10 mi
1:53 PM78 °FScattered clouds.3 mph37%30.23 "Hg10 mi
12:53 PM76 °FPassing clouds.N/A39%30.25 "Hg10 mi
11:53 AM74 °FPassing clouds.No wind43%30.25 "Hg10 mi
10:53 AM74 °FPassing clouds.6 mph41%30.25 "Hg10 mi
9:53 AM72 °FSunny.5 mph48%30.25 "Hg10 mi
8:53 AM66 °FScattered clouds.6 mph65%30.26 "Hg10 mi
7:53 AM59 °FPassing clouds.6 mph78%30.24 "Hg10 mi
6:53 AM58 °FPassing clouds.3 mph81%30.23 "Hg10 mi
5:53 AM59 °FClear.5 mph75%30.22 "Hg10 mi
4:53 AM60 °FPassing clouds.5 mph72%30.23 "Hg10 mi
3:53 AM60 °FClear.5 mph69%30.23 "Hg10 mi
2:53 AM61 °FClear.7 mph65%30.24 "Hg10 mi
1:53 AM61 °FClear.3 mph65%30.26 "Hg10 mi
12:53 AM62 °FClear.5 mph62%30.28 "Hg10 mi
11:53 PM
Sun, Mar 29
62 °FClear.6 mph60%30.30 "Hg10 mi
10:53 PM63 °FClear.6 mph54%30.30 "Hg10 mi
9:53 PM64 °FClear.7 mph50%30.30 "Hg10 mi
8:53 PM65 °FClear.7 mph47%30.28 "Hg10 mi
7:53 PM67 °FSunny.9 mph37%30.27 "Hg10 mi
Weather by CustomWeather, © 2015

See weather overviewHow to use our weather pages